Location: Ostrava
(49.8330°N, 18.2830°E)
Time: 21:52:54
(UTC+02:00)

Iridium 39 - Visible Passes

Search period start: 19 September 2014 00:00
Search period end: 29 September 2014 00:00
Orbit: 776 x 779 km, 86.4° (Epoch: 19 September)

Date Brightness Start Highest point End Pass type
(mag) Time Alt. Az. Time Alt. Az. Time Alt. Az.
19 Sep 8.9 05:12:35 10° SE 05:16:22 21° ENE 05:20:10 10° NNE visible
20 Sep 9.4 04:41:12 10° E 04:43:14 12° ENE 04:45:17 10° NE visible
21 Sep 7.3 05:44:40 10° SSE 05:49:37 47° E 05:54:36 10° NNE visible
21 Sep 9.6 19:33:04 10° NW 19:35:05 12° WNW 19:37:06 10° W visible
22 Sep 8.3 05:11:56 10° SE 05:16:18 28° E 05:20:40 10° NNE visible
23 Sep 9.1 04:39:50 10° ESE 04:43:05 17° ENE 04:46:21 10° NE visible
24 Sep 6.6 05:44:31 10° S 05:49:39 65° E 05:54:49 10° N visible
25 Sep 7.6 05:11:29 10° SSE 05:16:15 38° E 05:21:03 10° NNE visible
26 Sep 8.5 04:38:58 10° SE 04:42:59 23° ENE 04:47:00 10° NNE visible
27 Sep 9.1 04:07:16 10° ESE 04:09:49 14° ENE 04:12:23 10° NE visible
27 Sep 6.1 05:44:31 10° S 05:49:44 88° E 05:54:58 10° N visible
28 Sep 6.9 05:11:14 10° SSE 05:16:15 52° E 05:21:19 10° NNE visible
28 Sep 9.6 19:00:23 10° WNW 19:01:39 11° WNW 19:02:56 10° W visible
